Regional Weather Roundup
Issued by NWS

Home | Current Version | Previous Version | Graphics & Text | Print | Product List | Glossary On
Versions: 1 2 3 4 5 6 7 8 9 10 11 12 13 14 15 16 17 18 19 20 21 22 23 24 25 26 27 28 29 30 31 32 33 34 35 36 37 38 39 40 41 42 43 44 45 46 47 48 49 50
920
ASUS43 KIND 181359
RWRIN

WEATHER ROUNDUP FOR INDIANA
NATIONAL WEATHER SERVICE INDIANAPOLIS IN
900 AM EST WED JAN 18 2017

NOTE: "FAIR" INDICATES FEW OR NO CLOUDS BELOW 12,000 FEET WITH NO
SIGNIFICANT WEATHER AND/OR OBSTRUCTIONS TO VISIBILITY.

* - STATION DOES NOT REPORT WEATHER SUCH AS PRECIPITATION OR FOG.

+ - STATION NOT QUALITY CONTROLLED BY THE NATIONAL WEATHER SERVICE.
    USE DATA WITH CAUTION...ESPECIALLY DEWPOINT AND RELATIVE
    HUMIDITY OBSERVATIONS.

INZ001>003-010>013-019-020-181500-
NORTHWEST INDIANA

CITY           SKY/WX    TMP DP  RH WIND       PRES   REMARKS
MONTICELLO +   CLOUDY    33  32  95 W8        30.16R FOG     WCI  26
VALPARAISO     CLOUDY    35  34  96 W13       30.14R FOG     WCI  26

$$

LMZ046-743>745-181500-
SOUTHERN LAKE MICHIGAN

STATION/POSITION TIME  TEMP    WIND        PRES    WAVE
                       AIR SEA DIR/SP/G            HT
                 (UTC) (F)     (DEG/KT/KT) (MB)    (FT)

$$

INZ004-005-014>016-021>024-181500-
NORTH CENTRAL INDIANA

CITY           SKY/WX    TMP DP  RH WIND       PRES   REMARKS
ELKHART        DRIZZLE   34  32  93 W8        30.12R FOG     WCI  27
GOSHEN         FOG       34  31  88 W13       30.12R VSB 1   WCI  25
PERU/GRISSOM   CLOUDY    32  32 100 W12       30.13S FOG     WCI  23
SOUTH BEND     FOG       33  33 100 W10       30.12R VSB 1   WCI  25

$$

INZ006>009-017-018-025>027-181500-
NORTHEAST INDIANA

CITY           SKY/WX    TMP DP  RH WIND       PRES   REMARKS
ANGOLA *+      CLOUDY    34  34 100 W9        30.08R WCI  26
FORT WAYNE     DRIZZLE   35  32  88 W17       30.13R FOG     WCI  25
KENDALLVILLE + CLOUDY    33  33 100 W10G17    30.10R FOG     WCI  25

$$

INZ028-029-035-036-043>045-051>053-181500-
WEST CENTRAL INDIANA

CITY           SKY/WX    TMP DP  RH WIND       PRES   REMARKS
CRAWFORDSVL +  CLOUDY    33  33 100 NW6       30.17S FOG     WCI  27
LAFAYETTE      CLOUDY    34  33  96 W7        30.17R WCI  28
TERRE HAUTE    CLOUDY    37  34  89 NW7       30.20R

$$

INZ030>032-037>040-046>048-054>057-064-065-181500-
CENTRAL INDIANA

CITY           SKY/WX    TMP DP  RH WIND       PRES   REMARKS
ANDERSON       CLOUDY    34  32  93 NW12G17   30.17  WCI  25
COLUMBUS       LGT RAIN  37  37 100 W7        30.19S
INDIANAPOLIS   CLOUDY    36  33  89 NW9       30.18R
-EAGLE CREEK   CLOUDY    36  33  89 NW9       30.17R
KOKOMO +       CLOUDY    34  33  96 W15       30.16R FOG     WCI  24
MT COMFORT *+  CLOUDY    36  32  87 W10       30.18R
SHELBYVILLE    CLOUDY    38  33  82 W8        30.17R

$$

INZ033-034-041-042-049-050-058-059-181500-
EAST CENTRAL INDIANA

CITY           SKY/WX    TMP DP  RH WIND       PRES   REMARKS
MUNCIE         CLOUDY    36  33  89 NW13      30.16R

$$

INZ060-061-067>069-081>083-085>088-181500-
SOUTHWEST INDIANA

CITY           SKY/WX    TMP DP  RH WIND       PRES   REMARKS
EVANSVILLE     CLOUDY    41  34  76 NW6       30.25R
HUNTINGBURG *+ CLOUDY    39  36  87 W9        30.24R

$$

INZ062-063-066-070>080-084-089>092-181500-
SOUTH CENTRAL AND SOUTHEAST INDIANA

CITY           SKY/WX    TMP DP  RH WIND       PRES   REMARKS
BLOOMINGTON    CLOUDY    37  35  92 W6        30.19R FOG
MADISON *+     CLOUDY    37  36  93 W3        30.21R
SEYMOUR +      LGT RAIN  39  39 100 CALM      30.20R

$$





USA.gov is the U.S. government's official web portal to all federal, state and local government web resources and services.